Simultaneous Nadir Overpasses (SNOs) Predictions

Prediction of SNOs between GOES-17 and AQUA Satellite Orbit:

Table of predicted SNOs for the next 14.0 days since TLE Epoch: 7/16/2022
Index Date Time (GOES-17) GOES-17 Lat,Lon AQUA Lat,Lon Distance(km) Time Diff (sec)
1 07/17/2022 10:51:38 0.05,-137.29 0.17,-137.74 51.76 80
2 07/19/2022 10:36:22 0.04,-137.30 -0.54,-134.68 298.19 80
3 07/19/2022 22:57:39 -0.05,-137.30 -0.61,-139.84 289.16 80
4 07/21/2022 22:47:42 -0.04,-137.30 0.06,-136.77 60.20 80
5 07/23/2022 22:35:05 -0.03,-137.30 0.74,-133.70 408.81 80
6 07/24/2022 10:56:13 0.03,-137.30 0.38,-138.82 173.62 80
7 07/26/2022 10:40:56 0.01,-137.29 -0.32,-135.76 174.12 80
8 07/26/2022 23:02:12 -0.01,-137.28 -0.81,-140.91 413.95 80
9 07/28/2022 22:49:35 0.02,-137.26 -0.09,-137.85 67.18 80
